Starlink 30069

operational
NORAD ID: 56834 Int'l Des: 2023-079 Owner: SPXS Country: US Constellation: starlink
LEOCIRCULAR

About Starlink 30069

Description loading...

Live Position

Loading 3D Globe...

Upcoming Passes

Altitude History

Altitude vs Time

uPlot chart will show altitude changes over time

Two-Line Element Set

1 56834U 23079M 25351.62538647 -.00004740 00000-0 -33590-3 0 9994
2 56834 43.0022 192.9481 0001259 264.8065 95.2634 15.02550563140546
Epoch: Dec 17, 2025 • Age: 21 hours

Current Status

Altitude 565.2 km
Velocity 7.58 km/s
Sub-Earth Point -26.48°S, 104.69°W
Launch Date Jun 4, 2023
Age 2.5 years
Type internet

Technical Details

Classification Payload
Mass 730.00 kg
Dry Mass 700.00 kg
Total Mass 730.00 kg
Length 0.30 m
Diameter 4.10 m
Span 29.00 m
Shape Box + pan
Manufacturer SPXS
Bus Type Starlink V2M
Phase Status In Orbit
Owner/State SPXS/US

Large Constellations

Loading constellations...